Location: *
(57.8420°S, 159.8600°W)
Time: 04:06:36
(UTC+00:00)

SeaSat 1 - Pass Details

Date: 18 May 2021
Orbit: 745 x 746 km, 108.0° (Epoch: 23 June)

Event Time Altitude Azimuth Distance (km) Brightness Sun altitude
Exits shadow 03:43:17 - 142° (SE) 2,445 4.6 -9.8°
Reaches altitude 10° 03:43:48 10° 146° (SE) 2,304 4.5 -9.8°
Maximum altitude 03:47:04 18° 187° (S) 1,820 4.3 -10.2°
Drops below altitude 10° 03:50:20 10° 228° (SW) 2,301 5.4 -10.7°
Sets 03:53:16 0° 246° (WSW) 3,224 6.5 -11.0°
